Flag for U.S.A. Weather past 2 weeks in Jackson, Wyoming, U.S.A.

Now
25 °F

Ice fog.


Feels Like: 25 °F
Forecast: 15 / 38 °F
Wind: No wind

Location: Jackson Hole

Current Time: Jan 26, 2015 at 3:37:08 PM

Latest Report: Jan 26, 2015 at 2:51 PM


Visibility: 3 mi

Pressure: 30.35 "Hg

Humidity: 93%

Dew point: 23 °F

Location of JacksonLocation

Historic Weather in Jackson — Graph

°F

Jackson temperature yesterday

Maximum temperature yesterday: 34 °F (at 1:50 PM)
Minimum temperature yesterday: 23 °F (at 12:35 AM)
Average temperature yesterday: 26 °F

Past Weeks' High & Low Weather Summary

 TemperatureHumidityPressure
High37 °F (Jan 19, 12:15 AM)100% (Jan 11, 3:52 PM)30.48 "Hg (Jan 11, 3:52 PM)
Low-11 °F (Jan 22, 3:55 AM)56% (Jan 19, 1:52 PM)29.98 "Hg (Jan 16, 2:51 PM)
Average15 °F91%30.28 "Hg
* Reported Jan 11 1:51 PM — Jan 26 1:51 PM, Jackson, Weather by CustomWeather, © 2014

Note: Actual official high and low records may vary slightly from our data, if they occured in-between our weather recording intervals... More about our weather records

Advertising

Jackson weather history for previous 24 hours

 ConditionsComfort  
Time TempWeatherWind HumidityBarometerVisibility
1:51 PM
Jan 26
25 °FLow clouds.No wind100%30.38 "Hg2 mi
12:51 PM25 °FIce fog.No wind93%30.41 "Hg2 mi
11:51 AM25 °FLow clouds.No wind100%30.45 "Hg10 mi
10:51 AM25 °FLow clouds.No wind93%30.48 "Hg10 mi
9:51 AM25 °FLow clouds.6 mph100%30.48 "Hg10 mi
8:50 AM25 °FIce fog.6 mph100%30.48 "Hg3 mi
7:49 AM25 °FIce fog.No wind100%30.48 "Hg2 mi
6:50 AM25 °FIce fog.No wind93%30.47 "Hg2 mi
6:35 AM25 °FLow clouds.No wind100%30.48 "Hg1 mi
6:15 AM23 °FLow clouds.No wind100%30.47 "Hg1 mi
5:55 AM25 °FLow clouds.No wind100%30.46 "Hg4 mi
5:35 AM23 °FLow clouds.No wind93%30.46 "Hg9 mi
5:15 AM25 °FLow clouds.No wind93%30.46 "Hg4 mi
4:55 AM25 °FLow clouds.No wind93%30.45 "Hg5 mi
4:35 AM25 °FLow clouds.No wind100%30.46 "Hg2 mi
4:15 AM25 °FLow clouds.No wind93%30.46 "Hg1 mi
3:55 AM23 °FLow clouds.No wind93%30.46 "Hg0 mi
3:35 AM21 °FLow clouds.No wind100%30.46 "Hg0 mi
3:15 AM21 °FLow clouds.3 mph100%30.46 "Hg1 mi
2:55 AM25 °FLow clouds.6 mph100%30.47 "Hg0 mi
2:35 AM25 °FLow clouds.6 mph100%30.46 "Hg1 mi
2:15 AM27 °FLow clouds.5 mph100%30.46 "Hg1 mi
1:55 AM25 °FLow clouds.No wind100%30.46 "Hg1 mi
1:35 AM25 °FLow clouds.5 mph100%30.46 "Hg1 mi
1:15 AM25 °FLow clouds.3 mph100%30.46 "Hg7 mi
12:55 AM25 °FLow clouds.No wind100%30.46 "Hg10 mi
12:35 AM27 °FLow clouds.No wind100%30.46 "Hg10 mi
12:15 AM25 °FLow clouds.3 mph100%30.46 "Hg2 mi
11:55 PM
Jan 25
23 °FLow clouds.No wind100%30.46 "Hg2 mi
11:35 PM23 °FLow clouds.No wind93%30.46 "Hg1 mi
11:15 PM25 °FLow clouds.No wind100%30.46 "Hg2 mi
10:55 PM23 °FPassing clouds.No wind93%30.46 "Hg5 mi
10:35 PM23 °FPassing clouds.3 mph100%30.45 "Hg7 mi
10:15 PM27 °FPassing clouds.No wind100%30.45 "Hg10 mi
9:55 PM25 °FClear.No wind100%30.44 "Hg10 mi
9:35 PM27 °FClear.No wind100%30.44 "Hg10 mi
9:15 PM27 °FClear.5 mph93%30.44 "Hg10 mi
7:51 PM30 °FClear.7 mph93%30.43 "Hg10 mi
6:51 PM28 °FClear.5 mph100%30.43 "Hg10 mi
5:51 PM28 °FClear.7 mph86%30.43 "Hg10 mi
4:51 PM32 °FSunny.No wind87%30.41 "Hg10 mi
3:48 PM34 °FSunny.12 mph81%30.39 "Hg10 mi
Weather by CustomWeather, © 2014

See weather overviewHow to use our weather pages